CZ-11 R/B, 41847

Orbit data source: Space-Track

CZ-11 R/B, 41847 is space debris in SSO originally from a launch on Wed, 09 Nov 2016 UTC via a CHANG ZHENG 11 launch vehicle from the Jiuquan Satellite Launch Center, China (JSC). Debris objects in space refer to the collection of defunct objects orbiting the Earth. Examples of debris include non-operational satellites, rocket bodies, and fragments generated from explosions, collisions, or faulty payload assembly.

Loading next visibility...
Identifier
41847, 2016-066G
Orbit
SSO
Country
Flag of CNCN / PRC
Related business
Flag of CNXpeng Aeroht (CN)
Manufacturer
Kechuang Hangtian
Mission
Partially operational spacecraft
Bus & Motor
KS-1, Unknown motor
Mass
503 kg wet, 1 kg dry
Launch date (UTC)
2016-11-09 (9 years ago)
Launch vehicle
CHANG ZHENG 11
Launch site
Jiuquan Satellite Launch Center, China (JSC)
Object type
Payload
Rocket body
Debris
Shape & HBR
Unknown
Radar Cross Section
Large (>1 m²)

Expand to show TLE details & history
Last TLE update: 8 hours ago

TLE from 8 hours ago
0 CZ-11 R/B
1 41847U 16066G   25346.96948436  .00001667  00000-0  24471-3 0  9993
2 41847  98.4036  59.7074 0343232 334.4627  23.9944 14.44131599477914
Epoch: 2025-12-12T23:16Z
TLE epoch observation values (Epoch: 2025-12-12T23:16:03.448Z)
Latitude
-0.00005°
Longitude
-11.21044°
Altitude
525.897 km
Speed
7.718 km/s
True Right ascension
03h 58m 49s
True Declination
0° 00' 00"
Sunlit
Object was in full shadow at epoch
Visualization orbit readout
Latitude
Unknown
Longitude
Unknown
Altitude
Unknown
Speed
Unknown
Apparent Right ascension
Unknown
Apparent Declination
Unknown
Sunlit
N/A
Visualization observer readout
Local Sidereal Time
05:27:21
Azimuth
Unknown
Elevation
Unknown
Doppler factor
Unknown
Orbital elements
Apogee altitude
986.372 km
Perigee altitude
497.602 km
Semi-major axis
7,120.124 km
Eccentricity
0.03432
Inclination
98.4036°
RAAN
59.7074°
Arg. of periapsis
334.4627°
True anomaly
25.65871°
Mean anomaly
23.9944°
Eccentric anomaly
24.8199°
Mean motion
3.61253 °/min
Orbital period
99.65 mins
BSTAR
0.00024471
Loading maneuver chart data...
Computing Atmospheric mass density...
Loading historical data...
Loading historical data...
Loading historical data...
Loading historical data...
Loading historical data...
Loading historical data...
Loading historical data...

Documentation

Showing up to 5 results
|